Wind_Speed
14 16 17 16 17 25 28 33 30 23 26 26 31 32 30 28 25 22 22 23 34 36 36 33 29 26 20 17 17 12 9 14
9 17 21 22 20 24 25 24 25 28 28 29 27 25 27 27 25 20 19 26 35 36 34 32 28 20 19 18 14 10 8 15
8 11 20 22 23 24 25 23 24 29 22 21 24 25 25 24 23 23 23 30 34 35 34 30 25 23 20 19 14 8 9 17
11 12 15 22 23 24 25 26 28 22 29 24 25 20 25 28 25 23 25 30 33 36 36 30 23 24 26 20 12 11 12 16
11 12 13 16 21 24 25 27 26 26 28 28 32 32 33 32 28 27 28 29 32 35 39 32 27 27 23 18 13 12 10 15
11 11 13 14 15 18 21 19 21 27 29 28 34 37 38 35 33 32 32 33 34 35 41 35 32 21 17 17 14 10 6 11
10 11 13 14 15 16 17 21 22 23 24 32 42 40 39 36 35 33 32 33 33 37 40 39 34 19 18 18 15 9 5 11
10 12 14 13 13 16 20 21 21 27 27 31 44 42 39 39 35 33 31 30 33 38 41 40 33 20 21 19 13 11 7 9
15 14 17 15 15 15 20 23 22 20 36 39 41 42 42 38 34 33 31 31 32 35 41 37 31 22 20 17 14 14 9 8
12 14 17 17 18 17 18 22 22 28 39 40 38 40 36 37 36 34 32 32 32 37 43 33 33 25 19 18 16 16 10 8
11 17 19 22 19 20 21 21 24 32 38 40 39 39 40 39 38 37 35 34 35 38 43 32 33 26 19 19 19 15 12 13
12 17 20 20 19 21 21 22 26 31 33 36 42 43 39 39 38 38 37 38 37 37 36 32 29 25 21 20 19 16 15 13
13 21 26 25 27 27 25 25 28 33 36 41 44 43 40 39 38 38 38 40 36 34 31 30 28 23 29 21 18 16 15 15
14 22 27 30 28 29 30 28 27 29 38 46 45 44 41 40 39 40 39 39 38 34 35 35 31 26 29 28 22 18 20 20
17 18 26 29 29 28 29 29 32 29 40 49 51 42 41 40 41 39 41 39 40 36 39 34 35 32 26 24 14 11 26 25
17 17 24 27 27 28 27 30 31 33 34 42 49 42 42 40 37 38 42 39 38 37 38 35 33 35 31 27 22 17 15 15
19 17 22 25 24 22 22 22 22 21 30 30 43 42 42 36 33 39 36 39 39 40 39 35 33 35 38 25 29 32 20 18
22 19 22 25 26 26 22 25 22 27 31 35 42 42 33 34 36 41 39 35 28 31 26 35 34 37 28 26 36 34 31 25
25 22 22 25 27 26 27 25 27 28 31 35 42 51 44 35 32 34 36 37 31 28 36 38 37 38 34 34 36 37 35 32
26 24 21 24 27 26 29 30 29 30 36 41 44 49 51 44 41 37 34 33 31 36 41 38 35 39 34 33 33 38 37 36
Wind_Direction
223 208 205 215 230 224 220 216 186 184 189 192 182 183 168 168 166 167 175 168 157 152 155 152 151 163 163 154 150 151 163 162
232 215 215 213 223 222 223 214 202 195 199 162 173 184 174 173 170 162 175 163 160 157 157 154 158 163 157 156 156 147 165 166
251 224 222 223 222 226 221 214 204 206 195 172 192 192 177 176 176 164 167 163 164 162 160 157 160 161 165 162 155 158 158 158
243 234 229 224 228 226 227 220 210 220 205 208 209 198 185 187 181 170 167 167 165 163 162 160 163 161 159 157 163 136 137 156
245 239 226 214 221 224 230 226 225 223 208 203 197 196 187 187 179 175 167 167 171 169 165 161 157 162 162 163 154 135 123 163
237 226 206 208 219 227 222 218 213 211 202 195 174 184 184 186 180 175 172 174 171 169 168 161 160 167 170 168 162 147 133 168
225 213 205 210 210 215 201 204 206 202 203 200 195 187 186 185 180 174 172 172 171 168 168 165 165 166 166 170 167 166 148 174
238 217 207 212 203 200 201 206 209 206 212 195 185 176 184 184 179 174 173 176 174 171 171 169 168 172 166 166 173 181 176 178
228 223 205 206 208 206 202 198 199 200 177 167 172 183 184 182 178 175 178 173 172 173 172 170 171 168 167 170 188 191 186 196
218 203 207 203 204 201 195 184 188 178 175 178 184 188 188 188 186 181 178 173 174 171 170 169 171 175 174 180 190 186 177 177
213 184 202 203 206 202 196 190 194 190 186 185 191 192 192 192 187 181 179 175 169 170 175 173 174 176 182 182 188 191 185 174
202 188 195 200 193 199 191 193 194 197 200 200 191 192 194 197 190 182 177 176 172 175 178 182 184 180 183 181 190 195 197 194
199 189 190 199 198 196 196 198 200 203 202 201 193 195 199 196 190 185 181 179 177 181 180 181 185 188 189 184 190 200 210 217
201 193 191 197 201 200 203 203 209 212 205 199 197 199 202 202 198 191 187 187 186 184 186 186 190 189 191 201 193 200 219 227
205 198 194 196 202 209 213 214 216 215 213 205 203 202 202 201 197 197 194 193 189 190 190 193 193 191 198 196 189 209 219 225
201 200 192 197 203 209 214 214 212 216 218 212 202 201 199 201 201 203 199 202 201 195 195 193 195 193 198 209 217 227 209 221
199 199 190 200 200 205 206 205 211 213 217 208 213 192 197 203 204 199 200 202 206 200 192 199 199 203 197 199 223 222 226 221
199 201 196 195 196 202 199 200 201 212 210 205 199 186 189 204 200 202 198 197 187 191 194 209 206 209 212 219 224 222 226 227
202 203 202 196 199 201 203 206 204 211 206 202 195 196 197 201 207 205 201 201 198 202 206 216 217 219 218 222 228 235 240 245
205 208 207 202 200 205 207 209 211 210 198 192 193 200 205 203 211 218 212 212 208 215 219 222 226 219 222 234 236 237 238 243
Height
1475 1477 1480 1480 1481 1482 1486 1476 1486 1496 1497 1499 1504 1504 1508 1515 1518 1521 1527 1529 1533 1536 1539 1541 1543 1544 1547 1549 1552 1554 1555 1555
1472 1475 1476 1477 1478 1479 1483 1486 1480 1492 1497 1494 1504 1508 1511 1513 1517 1519 1525 1529 1534 1536 1541 1544 1542 1545 1548 1550 1554 1555 1556 1555
1471 1472 1473 1475 1476 1477 1480 1485 1488 1491 1494 1499 1505 1509 1514 1514 1519 1520 1524 1529 1533 1538 1541 1544 1544 1547 1549 1552 1555 1556 1555 1556
1468 1469 1470 1472 1474 1475 1477 1479 1483 1484 1492 1495 1504 1507 1511 1515 1520 1522 1524 1528 1533 1538 1542 1544 1545 1547 1550 1554 1557 1556 1555 1558
1465 1466 1467 1469 1470 1472 1473 1476 1479 1483 1486 1489 1500 1505 1511 1515 1518 1521 1523 1528 1533 1537 1541 1545 1545 1549 1551 1554 1556 1557 1557 1560
1462 1464 1465 1467 1468 1470 1472 1474 1477 1480 1483 1488 1491 1491 1506 1511 1516 1519 1521 1527 1531 1536 1540 1545 1547 1549 1551 1554 1556 1558 1559 1561
1459 1462 1464 1465 1466 1468 1470 1472 1474 1477 1480 1483 1485 1493 1502 1509 1514 1517 1521 1525 1530 1535 1539 1544 1548 1548 1551 1553 1556 1559 1560 1561
1457 1459 1462 1464 1465 1467 1469 1472 1473 1475 1475 1476 1482 1490 1500 1507 1512 1516 1520 1524 1530 1534 1538 1543 1547 1549 1552 1553 1557 1560 1561 1562
1455 1456 1459 1462 1464 1466 1469 1471 1473 1473 1474 1479 1486 1491 1498 1504 1510 1514 1520 1523 1528 1533 1538 1543 1547 1548 1551 1554 1557 1559 1561 1563
1453 1454 1457 1460 1463 1465 1467 1470 1474 1476 1477 1482 1487 1494 1499 1504 1508 1513 1518 1522 1526 1531 1537 1540 1545 1547 1551 1554 1557 1560 1561 1562
1449 1453 1455 1459 1461 1465 1467 1471 1475 1477 1480 1483 1487 1492 1497 1502 1506 1511 1516 1520 1525 1530 1536 1540 1543 1546 1550 1554 1557 1560 1561 1562
1446 1450 1454 1457 1461 1464 1466 1470 1474 1478 1481 1484 1487 1491 1497 1501 1506 1510 1512 1518 1522 1529 1534 1539 1542 1546 1550 1555 1557 1560 1561 1562
1443 1446 1451 1454 1457 1460 1465 1467 1472 1475 1478 1481 1485 1489 1495 1500 1504 1507 1511 1516 1520 1527 1531 1534 1540 1545 1550 1555 1556 1558 1559 1561
1440 1442 1447 1451 1454 1458 1461 1464 1468 1471 1473 1476 1483 1487 1492 1497 1501 1504 1509 1514 1519 1523 1529 1532 1538 1542 1546 1552 1554 1556 1557 1558
1436 1439 1444 1449 1453 1456 1459 1462 1463 1465 1468 1471 1478 1483 1490 1494 1498 1502 1507 1513 1516 1521 1527 1530 1534 1538 1544 1548 1550 1550 1553 1554
1433 1436 1441 1445 1449 1453 1455 1455 1457 1460 1465 1469 1473 1481 1488 1492 1496 1500 1505 1510 1514 1519 1524 1528 1531 1535 1541 1545 1547 1549 1549 1550
1430 1433 1437 1441 1445 1449 1452 1453 1456 1457 1461 1466 1470 1478 1484 1490 1494 1498 1502 1508 1512 1515 1519 1525 1528 1533 1536 1539 1543 1545 1545 1546
1427 1429 1433 1437 1442 1445 1449 1452 1454 1456 1459 1463 1468 1476 1481 1487 1490 1497 1501 1503 1507 1511 1517 1523 1526 1530 1533 1534 1537 1539 1540 1542
1424 1426 1429 1433 1438 1443 1446 1449 1451 1453 1456 1460 1466 1474 1478 1484 1488 1492 1497 1501 1505 1512 1516 1519 1522 1525 1527 1527 1532 1535 1537 1539
1420 1423 1425 1429 1433 1439 1444 1447 1449 1452 1456 1460 1464 1469 1473 1480 1485 1489 1492 1496 1502 1507 1512 1514 1517 1519 1521 1524 1526 1529 1531 1533